GW3114 Weather Reports


Display with metric or nautical units.
time (UTC)temp
F
wind
direction
speed
MPH
gust
MPH
rain 1hr
in
rain 24hr
in
rain mn
in
humidity
%
barometer
mb
20260510212315 67 264 1.0 2.0 0.00 0.04 0.04 92 1013.2
20260510211313 67 236 1.0 1.0 0.00 0.04 0.04 91 1013.4
20260510210310 67 231 1.0 2.0 0.00 0.04 0.04 91 1013.3
20260510205306 66 222 0.0 0.0 0.05 0.04 0.04 93 1012.9
20260510204303 65 225 1.0 1.0 0.00 0.03 0.03 93 1013.0
20260510203258 64 36 0.0 1.0 0.07 0.03 0.03 92 1013.4
20260510202254 64 255 2.0 3.0 0.00 0.02 0.02 90 1013.9
20260510201253 65 253 5.0 9.0 0.12 0.02 0.02 87 1013.9
20260510200248 70 324 9.0 10.0 0.00 0.00 0.00 79 1013.3
20260510195247 73 223 0.0 0.0 0.00 0.00 0.00 68 1012.2
20260510194243 73 164 2.0 2.0 0.00 0.00 0.00 70 1012.3
20260510193240 74 235 0.0 1.0 0.00 0.00 0.00 63 1012.5
20260510192237 74 270 2.0 3.0 0.00 0.00 0.00 65 1012.6
20260510191235 75 226 1.0 2.0 0.00 0.00 0.00 67 1012.8
20260510190230 76 218 0.0 0.0 0.00 0.00 0.00 61 1012.8
20260510185225 78 238 1.0 2.0 0.00 0.00 0.00 53 1012.8
20260510184224 78 232 0.0 1.0 0.00 0.00 0.00 49 1012.8
20260510183220 79 331 0.0 0.0 0.00 0.00 0.00 48 1012.7
20260510182219 79 166 1.0 2.0 0.00 0.00 0.00 50 1012.7
20260510181218 80 183 0.0 0.0 0.00 0.00 0.00 46 1012.8
20260510180218 82 188 2.0 3.0 0.00 0.00 0.00 43 1012.9
20260510175216 80 169 3.0 6.0 0.00 0.00 0.00 49 1012.8
20260510174210 78 207 0.0 0.0 0.00 0.00 0.00 53 1013.0
20260510173208 80 224 0.0 1.0 0.00 0.00 0.00 47 1013.2
20260510172206 81 247 1.0 1.0 0.00 0.00 0.00 48 1013.1
20260510171206 82 3 2.0 3.0 0.00 0.00 0.00 47 1013.3
20260510170205 84 214 0.0 1.0 0.00 0.00 0.00 45 1013.2
20260510165203 83 221 0.0 1.0 0.00 0.00 0.00 44 1013.4
20260510164204 82 166 1.0 2.0 0.00 0.00 0.00 48 1013.6
20260510163200 80 197 1.0 1.0 0.00 0.00 0.00 48 1013.4
20260510162157 82 226 2.0 3.0 0.00 0.00 0.00 48 1013.5
20260510161155 81 240 1.0 2.0 0.00 0.00 0.00 50 1013.6
20260510160153 80 222 2.0 2.0 0.00 0.00 0.00 49 1013.9
20260510155151 80 211 2.0 3.0 0.00 0.00 0.00 50 1013.8
20260510154148 82 306 4.0 4.0 0.00 0.00 0.00 48 1013.7
20260510153145 80 227 1.0 1.0 0.00 0.00 0.00 49 1013.8
20260510152143 80 304 2.0 3.0 0.00 0.00 0.00 50 1013.7
20260510151139 80 265 3.0 3.0 0.00 0.00 0.00 49 1013.6
20260510150135 79 141 3.0 3.0 0.00 0.00 0.00 50 1013.6
20260510145134 77 170 2.0 2.0 0.00 0.00 0.00 54 1013.9
20260510144132 77 210 0.0 0.0 0.00 0.00 0.00 57 1013.8
20260510143130 76 219 1.0 1.0 0.00 0.00 0.00 59 1013.6
20260510142129 75 155 1.0 2.0 0.00 0.00 0.00 60 1013.6
20260510141124 77 205 0.0 0.0 0.00 0.00 0.00 59 1013.5
20260510140119 75 225 0.0 0.0 0.00 0.00 0.00 64 1013.5
20260510135117 71 57 0.0 0.0 0.00 0.00 0.00 67 1013.2
20260510134117 70 183 1.0 1.0 0.00 0.00 0.00 71 1013.5
20260510133114 70 121 1.0 2.0 0.00 0.00 0.00 70 1013.4
20260510132114 68 298 1.0 1.0 0.00 0.00 0.00 73 1013.5
20260510131109 68 219 1.0 2.0 0.00 0.00 0.00 72 1013.7
20260510130109 68 184 1.0 1.0 0.00 0.00 0.00 74 1013.6
20260510125107 66 181 0.0 1.0 0.00 0.00 0.00 78 1013.6
20260510124107 66 212 1.0 1.0 0.00 0.00 0.00 77 1013.5
20260510123105 64 138 0.0 0.0 0.00 0.00 0.00 82 1013.6
20260510122102 63 259 1.0 1.0 0.00 0.00 0.00 80 1013.6
20260510121103 63 209 0.0 0.0 0.00 0.00 0.00 80 1013.7
20260510115102 59 221 1.0 2.0 0.00 0.00 0.00 89 1013.5
20260510114059 55 216 1.0 1.0 0.00 0.00 0.00 99 1013.3
20260510113059 52 335 1.0 2.0 0.00 0.00 0.00 99 1013.1
20260510112057 50 222 1.0 1.0 0.00 0.00 0.00 99 1013.0
20260510111056 48 217 0.0 0.0 0.00 0.00 0.00 99 1012.7
20260510110054 48 198 0.0 0.0 0.00 0.00 0.00 99 1012.5
20260510105051 47 218 0.0 0.0 0.00 0.00 0.00 99 1012.5
20260510104050 47 211 0.0 0.0 0.00 0.00 0.00 99 1012.4
20260510103049 46 241 1.0 2.0 0.00 0.00 0.00 99 1012.1
20260510102047 45 239 1.0 1.0 0.00 0.00 0.00 99 1012.3
20260510101043 45 219 0.0 0.0 0.00 0.00 0.00 99 1011.8
20260510100042 45 220 0.0 0.0 0.00 0.00 0.00 99 1011.7
20260510095037 45 213 0.0 0.0 0.00 0.00 0.00 99 1011.9
20260510094034 45 220 0.0 0.0 0.00 0.00 0.00 99 1011.7
20260510093032 45 221 0.0 0.0 0.00 0.00 0.00 99 1011.7
20260510092029 45 222 0.0 0.0 0.00 0.00 0.00 99 1011.8
20260510091028 45 218 0.0 0.0 0.00 0.00 0.00 99 1011.7
20260510090026 46 219 0.0 0.0 0.00 0.00 0.00 99 1011.6
20260510085022 46 219 0.0 0.0 0.00 0.00 0.00 99 1011.8
20260510084022 47 225 0.0 1.0 0.00 0.00 0.00 99 1011.5
20260510083021 46 227 0.0 1.0 0.00 0.00 0.00 99 1011.7
20260510082018 46 221 0.0 0.0 0.00 0.00 0.00 99 1011.9
20260510081015 47 243 0.0 0.0 0.00 0.00 0.00 99 1011.6
20260510080012 47 220 0.0 0.0 0.00 0.00 0.00 99 1011.1
20260510075011 47 223 0.0 0.0 0.00 0.00 0.00 99 1011.1
20260510074010 47 263 1.0 1.0 0.00 0.00 0.00 99 1010.8
20260510073009 48 223 0.0 1.0 0.00 0.00 0.00 99 1011.1
20260510072007 46 212 0.0 0.0 0.00 0.00 0.00 99 1011.0
20260510071002 48 212 0.0 0.0 0.00 0.00 0.00 98 1010.7
20260510070000 49 220 0.0 0.0 0.00 0.00 0.00 99 1010.6
20260510065000 49 221 0.0 0.0 0.00 0.00 0.00 99 1010.7
20260510063959 49 225 0.0 1.0 0.00 0.00 0.00 98 1010.6
20260510062959 49 219 0.0 0.0 0.00 0.00 0.00 98 1010.7
20260510061955 49 228 1.0 1.0 0.00 0.00 0.00 98 1010.5
20260510060954 49 236 1.0 2.0 0.00 0.00 0.00 98 1010.5
20260510055953 49 212 0.0 0.0 0.00 0.00 0.00 98 1010.5
20260510054954 49 209 0.0 0.0 0.00 0.00 0.00 97 1010.5
20260510053950 50 221 0.0 0.0 0.00 0.00 0.00 96 1010.4
20260510052947 50 221 0.0 0.0 0.00 0.00 0.00 96 1010.5
20260510051946 50 238 1.0 1.0 0.00 0.00 0.00 96 1010.5
20260510050944 51 218 0.0 1.0 0.00 0.00 0.00 96 1010.5
20260510045945 50 226 0.0 0.0 0.00 0.00 0.00 96 1010.5
20260510044944 51 215 0.0 0.0 0.00 0.00 0.00 96 1010.6
20260510043944 51 216 0.0 0.0 0.00 0.00 0.00 96 1010.3
20260510042944 51 216 0.0 0.0 0.00 0.00 0.00 96 1010.6
20260510041941 51 215 0.0 0.0 0.00 0.00 0.00 96 1010.5
20260510040936 52 219 0.0 0.0 0.00 0.00 0.00 95 1010.2
20260510035933 52 218 0.0 0.0 0.00 0.00 0.00 95 1010.2
20260510034930 53 219 0.0 0.0 0.00 0.00 0.00 94 1010.5
20260510033925 53 233 1.0 1.0 0.00 0.00 0.00 94 1010.1
20260510032924 53 227 1.0 2.0 0.00 0.00 0.00 94 1010.2
20260510031922 53 225 1.0 1.0 0.00 0.00 0.00 93 1010.3
20260510030919 54 219 0.0 0.0 0.00 0.00 0.00 93 1010.3
20260510025913 54 211 0.0 0.0 0.00 0.00 0.00 93 1010.2
20260510024913 55 219 1.0 1.0 0.00 0.00 0.00 92 1010.2
20260510023910 55 222 0.0 0.0 0.00 0.00 0.00 92 1010.3
20260510022910 55 219 0.0 0.0 0.00 0.00 0.00 92 1010.1
20260510021908 55 229 0.0 0.0 0.00 0.00 0.00 91 1010.1
20260510020909 56 228 0.0 0.0 0.00 0.00 0.00 90 1009.9
20260510015905 57 217 0.0 0.0 0.00 0.00 0.00 90 1009.8
20260510014902 57 225 1.0 1.0 0.00 0.00 0.00 89 1009.7
20260510013902 58 219 0.0 0.0 0.00 0.00 0.00 87 1009.6
20260510012858 58 222 1.0 1.0 0.00 0.00 0.00 87 1009.2
20260510011854 59 215 0.0 0.0 0.00 0.00 0.00 85 1009.3
20260510010852 59 216 0.0 0.0 0.00 0.00 0.00 83 1009.1
20260510005851 60 225 0.0 1.0 0.00 0.00 0.00 81 1008.9
20260510004851 61 221 0.0 0.0 0.00 0.00 0.00 79 1008.7
20260510003847 62 215 0.0 0.0 0.00 0.00 0.00 78 1008.5
20260510002842 63 220 0.0 0.0 0.00 0.00 0.00 77 1008.6
20260510001842 65 215 0.0 0.0 0.00 0.00 0.00 72 1008.6
20260510000842 66 213 0.0 0.0 0.00 0.00 0.00 68 1008.7
20260509235841 68 215 0.0 0.0 0.00 0.00 0.00 64 1008.5
20260509234840 72 221 0.0 0.0 0.00 0.00 0.00 60 1008.5
20260509233836 74 221 0.0 0.0 0.00 0.00 0.00 55 1008.3
20260509232834 72 216 0.0 0.0 0.00 0.00 0.00 54 1008.1
20260509231834 76 199 0.0 0.0 0.00 0.00 0.00 48 1008.1
20260509230829 75 218 0.0 0.0 0.00 0.00 0.00 49 1008.1
20260509225826 77 212 0.0 0.0 0.00 0.00 0.00 47 1008.2
20260509224826 76 228 1.0 1.0 0.00 0.00 0.00 49 1008.0
20260509223825 74 216 0.0 0.0 0.00 0.00 0.00 53 1008.1
20260509222824 74 215 0.0 1.0 0.00 0.00 0.00 51 1008.1
20260509221821 74 258 1.0 2.0 0.00 0.00 0.00 53 1008.0
20260509220819 76 216 0.0 0.0 0.00 0.00 0.00 50 1008.0
20260509215817 75 271 2.0 2.0 0.00 0.00 0.00 51 1008.1
20260509214816 75 215 0.0 0.0 0.00 0.00 0.00 53 1008.3
20260509213816 76 237 2.0 2.0 0.00 0.00 0.00 51 1008.0